This demonstration page uses our WeatherBlox Daily Observations layout. Learn more.

Left ArrowRight Arrow

39.51506, -84.39828

Hourly Observations for February 13, 2018

Temp ( °F °C ) Dew Point ( °F °C ) Humidity (%) Winds ( mph kmh ) Pressure ( in mb ) Visibility ( mi km ) Precip ( " mm )
12:15 am 00:15 Clear 26 -3.5 19 -7.3 75 75 NE 10 17 30.77 1042 10 16 0.00 0.00
12:35 am 00:35 Clear 25 -3.7 18 -7.6 75 75 NE 8 13 30.77 1042 10 16 0.00 0.00
12:55 am 00:55 Clear 25 -3.9 18 -8 73 73 NNE 9 15 30.77 1042 10 16 0.00 0.00
1:15 am 01:15 Clear 24 -4.2 17 -8.2 74 74 NNE 7 11 30.77 1042 10 16 0.00 0.00
1:35 am 01:35 Clear 24 -4.4 17 -8.3 75 75 ENE 8 13 30.74 1041 10 16 0.00 0.00
1:55 am 01:55 Clear 24 -4.6 17 -8.3 76 76 NE 6 9 30.74 1041 10 16 0.00 0.00
2:15 am 02:15 Clear 23 -4.9 17 -8.4 77 77 NNE 6 9 30.77 1042 10 16 0.00 0.00
2:35 am 02:35 Clear 23 -5.2 16 -8.7 77 77 NE 5 7 30.77 1042 10 16 0.00 0.00
2:55 am 02:55 Clear 22 -5.3 16 -8.8 77 77 NE 6 9 30.74 1041 10 16 0.00 0.00
3:15 am 03:15 Clear 22 -5.4 16 -8.9 77 77 NNE 8 13 30.74 1041 10 16 0.00 0.00
3:35 am 03:35 Clear 22 -5.7 16 -9.1 77 77 NNE 6 9 30.74 1041 10 16 0.00 0.00
3:55 am 03:55 Clear 22 -5.5 16 -9.1 76 76 N 3 6 30.74 1041 10 16 0.00 0.00
4:15 am 04:15 Clear 21 -5.9 15 -9.2 78 78 NNE 5 7 30.74 1041 10 16 0.00 0.00
4:35 am 04:35 Clear 21 -6.2 15 -9.3 79 79 NNE 5 7 30.74 1041 10 16 0.00 0.00
4:55 am 04:55 Clear 21 -6.2 16 -9.1 80 80 NE 6 9 30.74 1041 10 16 0.00 0.00
5:15 am 05:15 Clear 21 -6.1 16 -9 80 80 NE 5 7 30.74 1041 10 16 0.00 0.00
5:35 am 05:35 Clear 21 -5.9 16 -8.9 80 80 NNE 6 9 30.74 1041 10 16 0.00 0.00
5:55 am 05:55 Clear 21 -5.9 16 -8.8 80 80 NE 6 9 30.74 1041 10 16 0.00 0.00
6:15 am 06:15 Clear 21 -5.9 16 -8.8 80 80 NE 6 9 30.71 1040 10 16 0.00 0.00
6:35 am 06:35 Clear 22 -5.6 17 -8.5 80 80 NE 9 15 30.71 1040 10 16 0.00 0.00
6:55 am 06:55 Clear 22 -5.7 17 -8.5 81 81 NNE 9 15 30.71 1040 10 16 0.00 0.00
7:15 am 07:15 Clear 22 -5.6 17 -8.5 80 80 NE 9 15 30.71 1040 10 16 0.00 0.00
7:35 am 07:35 Sunny 22 -5.3 17 -8.5 78 78 NE 8 13 30.71 1040 10 16 0.00 0.00
7:55 am 07:55 Sunny 23 -5.1 17 -8.4 78 78 NE 7 11 30.71 1040 10 16 0.00 0.00
8:15 am 08:15 Sunny 23 -4.8 17 -8.1 78 78 NE 6 9 30.71 1040 10 16 0.00 0.00
8:35 am 08:35 Sunny 25 -4.1 18 -8 75 75 ENE 8 13 30.71 1040 10 16 0.00 0.00
8:55 am 08:55 Sunny 26 -3.5 18 -7.8 72 72 NE 9 15 30.71 1040 10 16 0.00 0.00
9:15 am 09:15 Sunny 27 -2.7 19 -7.4 70 70 ENE 8 13 30.71 1040 10 16 0.00 0.00
9:35 am 09:35 Sunny 28 -2.1 19 -7.3 68 68 ENE 9 15 30.71 1040 10 16 0.00 0.00
9:55 am 09:55 Sunny 30 -1.2 19 -7 65 65 E 8 13 30.68 1039 10 16 0.00 0.00
10:15 am 10:15 Sunny 31 -0.6 20 -6.8 63 63 ENE 9 15 30.65 1038 10 16 0.00 0.00
10:35 am 10:35 Sunny 32 0.2 20 -6.8 60 60 ENE 9 15 30.65 1038 10 16 0.00 0.00
10:55 am 10:55 Sunny 34 0.9 19 -7 56 56 E 9 15 30.65 1038 10 16 0.00 0.00
11:15 am 11:15 Mostly Cloudy 34 0.9 19 -7.2 55 55 ENE 10 17 30.62 1037 10 16 0.00 0.00
11:35 am 11:35 Cloudy 34 1.3 19 -7.1 54 54 ENE 8 13 30.62 1037 10 16 0.00 0.00
11:55 am 11:55 Cloudy 35 1.6 19 -7 53 53 ENE 7 11 30.62 1037 10 16 0.00 0.00
12:15 pm 12:15 Cloudy 36 2.2 20 -6.6 53 53 E 8 13 30.59 1036 10 16 0.00 0.00
12:35 pm 12:35 Cloudy 36 2.1 20 -6.7 53 53 ESE 3 6 30.59 1036 10 16 0.00 0.00
12:55 pm 12:55 Cloudy 37 2.6 21 -6 53 53 SE 3 6 30.59 1036 10 16 0.00 0.00
1:15 pm 13:15 Cloudy 37 2.7 22 -5.8 54 54 SE 6 9 30.56 1035 10 16 0.00 0.00
1:35 pm 13:35 Cloudy 37 2.8 23 -5.2 56 56 S 7 11 30.56 1035 10 16 0.00 0.00
1:55 pm 13:55 Cloudy 38 3.1 24 -4.7 57 57 S 9 15 30.56 1035 10 16 0.00 0.00
2:15 pm 14:15 Cloudy 37 3 24 -4.7 57 57 SSE 6 9 30.53 1034 10 16 0.00 0.00
2:35 pm 14:35 Cloudy 38 3.6 25 -4 58 58 SSE 6 9 30.50 1033 10 16 0.00 0.00
2:55 pm 14:55 Cloudy 38 3.3 25 -3.8 60 60 SSE 6 9 30.53 1034 10 16 0.00 0.00
3:15 pm 15:15 Cloudy 39 3.7 26 -3.3 61 61 SSE 6 9 30.50 1033 10 16 0.00 0.00
3:35 pm 15:35 Cloudy 39 3.7 27 -3 62 62 Calm 30.48 1032 10 16 0.00 0.00
3:55 pm 15:55 Cloudy 40 4.2 27 -2.9 60 60 SSE 6 9 30.50 1033 10 16 0.00 0.00
4:15 pm 16:15 Mostly Cloudy 40 4.5 27 -2.7 60 60 SE 5 7 30.48 1032 10 16 0.00 0.00
4:35 pm 16:35 Sunny 40 4.4 28 -2.2 63 63 S 3 6 30.48 1032 10 16 0.00 0.00
4:55 pm 16:55 Partly Cloudy 40 4.3 29 -1.9 64 64 SSW 7 11 30.48 1032 10 16 0.00 0.00
5:15 pm 17:15 Sunny 40 4.2 28 -2.1 64 64 SW 6 9 30.48 1032 10 16 0.00 0.00
5:35 pm 17:35 Partly Cloudy 40 4.2 28 -2 64 64 S 3 6 30.48 1032 10 16 0.00 0.00
5:55 pm 17:55 Sunny 39 3.9 28 -2.4 64 64 Calm 30.45 1031 10 16 0.00 0.00
6:15 pm 18:15 Clear 38 3.2 28 -2.5 67 67 Calm 30.45 1031 10 16 0.00 0.00
6:35 pm 18:35 Clear 35 1.7 28 -2.1 76 76 NNE 3 6 30.48 1032 10 16 0.00 0.00
6:55 pm 18:55 Clear 34 1.1 28 -2.1 79 79 NNE 5 7 30.45 1031 10 16 0.00 0.00
7:15 pm 19:15 Clear 34 0.9 28 -2.2 80 80 Calm 30.45 1031 10 16 0.00 0.00
7:35 pm 19:35 Mostly Cloudy 33 0.3 28 -2.3 83 83 Calm 30.45 1031 10 16 0.00 0.00
7:55 pm 19:55 Partly Cloudy 32 -0.2 28 -2.3 86 86 Calm 30.45 1031 10 16 0.00 0.00
8:15 pm 20:15 Mostly Cloudy 32 0 29 -1.8 88 88 Calm 30.42 1030 10 16 0.00 0.00
8:35 pm 20:35 Partly Cloudy 30 -1.1 27 -2.7 89 89 N 3 6 30.42 1030 10 16 0.00 0.00
8:55 pm 20:55 Cloudy 32 0.1 29 -1.6 88 88 SSW 3 6 30.42 1030 10 16 0.00 0.00
9:15 pm 21:15 Cloudy 35 1.6 31 -0.8 84 84 SW 6 9 30.42 1030 10 16 0.00 0.00
9:35 pm 21:35 Cloudy 36 2.3 31 -0.8 80 80 W 6 9 30.42 1030 10 16 0.00 0.00
9:55 pm 21:55 Cloudy 37 2.6 31 -0.7 79 79 WSW 5 7 30.42 1030 10 16 0.00 0.00
10:15 pm 22:15 Cloudy 39 3.7 32 0.2 78 78 SSW 7 11 30.42 1030 10 16 0.00 0.00
10:35 pm 22:35 Cloudy 39 3.9 33 0.6 79 79 S 8 13 30.42 1030 10 16 0.00 0.00
10:55 pm 22:55 Cloudy 39 3.8 33 0.6 80 80 SSW 7 11 30.39 1029 10 16 0.00 0.00
11:15 pm 23:15 Cloudy 38 3.6 34 1 83 83 SW 3 6 30.39 1029 10 16 0.00 0.00
11:35 pm 23:35 Mostly Cloudy 37 3 34 0.9 86 86 SW 5 7 30.39 1029 10 16 0.00 0.00
11:55 pm 23:55 Clear 37 2.7 34 1.1 89 89 SW 6 9 30.39 1029 10 16 0.00 0.00

Powered by AerisWeather